Terminal Aerodrome Forecast
Issued by NWS

Home | Current Version | Previous Version | Text Only | Print | Product List | Glossary On
Versions: 1 2 3 4 5 6 7 8 9 10 11 12 13 14 15 16 17 18 19 20 21 22 23 24 25 26 27 28 29 30 31 32 33 34 35 36 37 38 39 40 41 42 43
000
FTAK31 PANC 011315 AAB
TAFACD
TAF AMD
PACD 011315Z 0113/0212 10015G25KT P6SM FEW025 BKN120
      TEMPO 0113/0115 10010KT
     FM012200 06025G35KT P6SM VCSH SCT035 OVC050
     FM020600 05018G28KT P6SM -RA BKN035 OVC050=

USA.gov is the U.S. government's official web portal to all federal, state and local government web resources and services.